JCSAT-15 (41903 NORAD) Tracking and Keplerian Element Data

This shows tracking and keplerian element data for the satellite.

Feedback or suggestion? Click here.




ElementValue
Catalog41903
NameJCSAT-15
Epoch Orbit697
Epoch Day319.54261055
Epoch Year2018
RAAN270.3252
Inclination0.0182
Eccentricity0.0001273
Argument of Perigee359.1835
Mean Anonmoly90.5061
Mean Motion1.00272042
Decay Rate-3.49E-06
L11 41903U 16082A 18319.54261055 -.00000349 00000-0 00000-0 0 9991
L22 41903 0.0182 270.3252 0001273 359.1835 90.5061 1.00272042 6979

Live tracking and technical data element details for JCSAT-15 (NORAD 41903). JCSAT-15 can be tracked NOW for your location showing map with azimuth and elevation plus other details from your city location.

Track the satellite on the map from your city or location and see movement details for azimuth, elevation, latitude, longitude, range, height, and movement on the map or in text.







IsCatalogInMostPopularTable: catalog: 41903, numindb: 111
Update: records affected: 1



GetName: 41903 JCSAT-15

Hit Count: updated at: Fri, 16 Nov 2018 11:34:22 GMT